Overview Statistics Trail Chart Weather Telemetry Raw packets
 

This is the latest recevied weather packets stored in our database for station/object R2AKT-13. If no packets are shown the sender has not sent any weather packets the latest 10 day(s).

<< 55 56 57 58 59 60 61 >>
Time Temp. Humidity Pressure Rain* Wind** Luminosity Snow
1787952061 13.89° C 67% 1002.7 hPa - 1.34 m/s, 162° - -
1787951531 13.89° C 68% 1002.7 hPa - 0.89 m/s, 162° - -
1787951024 14.44° C 66% 1002.7 hPa - 0.89 m/s, 161° - -
1787950451 14.44° C 64% 1002.6 hPa - 0.89 m/s, 151° - -
1787949921 14.44° C 66% 1002.6 hPa - 0.45 m/s, 140° - -
1787949426 14.44° C 64% 1002.6 hPa - 0.89 m/s, 144° - -
1787948866 14.44° C 64% 1002.4 hPa - 0.45 m/s, 149° - -
1787948371 15° C 65% 1002.4 hPa - 0.45 m/s, 131° - -
1787947811 14.44° C 64% 1002.3 hPa - 0.89 m/s, 141° - -
1787947256 15° C 64% 1002.2 hPa - 0.45 m/s, 137° - -
1787946706 15° C 62% 1002.1 hPa - 0.89 m/s, 144° - -
1787946181 15.56° C 62% 1002 hPa - 0.45 m/s, 130° - -
1787945646 15.56° C 61% 1002 hPa - 0.89 m/s, 140° - -
1787945061 15.56° C 61% 1001.9 hPa - 0.45 m/s, 140° - -
1787944471 15.56° C 61% 1001.8 hPa - 0.45 m/s, 134° - -
1787943886 15.56° C 61% 1001.7 hPa - 0.45 m/s, 141° - -
1787943401 15° C 61% 1001.7 hPa - 0.89 m/s, 150° - -
1787942821 15.56° C 60% 1001.7 hPa - 0 m/s - -
1787942301 15.56° C 60% 1001.6 hPa - 0 m/s - -
1787941811 16.11° C 59% 1001.6 hPa - 0 m/s - -
1787941246 16.11° C 58% 1001.7 hPa - 0.45 m/s, 111° - -
1787940719 16.11° C 58% 1001.6 hPa - 0.89 m/s, 113° - -
1787940211 16.11° C 58% 1001.6 hPa - 0.45 m/s, 122° - -
1787939711 16.11° C 57% 1001.7 hPa - 0.45 m/s, 116° - -
1787939226 16.67° C 56% 1001.7 hPa - 0.45 m/s, 106° - -

* Rain since midnight (hover to see other rain measurements)
** Current wind speed in m/s (hover to see current wind gust speed)